Manistique, MI

2:21 PM EDT on March 28, 2017 (GMT -0400)
Schoolcraft County

Weather History for KISQ - October, 2013

Change the Weather History Date:

Tuesday, October 22, 2013

  Actual Average Record
Temperature  
Mean Temperature 36 °F -  
Max Temperature 43 °F 51 °F 65 °F (1963)
Min Temperature 30 °F 36 °F 22 °F (1969)
Degree Days  
Heating Degree Days 28    
Moisture  
Dew Point 32 °F    
Average Humidity 89    
Maximum Humidity 97    
Minimum Humidity 70    
Precipitation  
Precipitation 0.03 in - - ()
Sea Level Pressure  
Sea Level Pressure 29.77 in    
Wind  
Wind Speed 10 mph (WNW)    
Max Wind Speed 20 mph    
Max Gust Speed 26 mph    
Visibility 9 miles    
Events Rain , Snow    
Averages and records for this station are not official NWS values.
T = Trace of Precipitation, MM = Missing Value Source: NWS Daily Summary

Daily Weather History Graph

Daily Weather History Graph

Search for Another Location

Airport or City:

Trip Planner

Search our weather history database for the weather conditions in past years. The results will help you decide how hot, cold, wet, or windy it might be!

Date:

Astronomy

Oct. 22, 2013 Rise Set
Actual Time 8:11 AM EDT 6:46 PM EDT
Civil Twilight 7:40 AM EDT 7:16 PM EDT
Nautical Twilight 7:06 AM EDT 7:51 PM EDT
Astronomical Twilight 6:31 AM EDT 8:25 PM EDT
Moon 9:17 PM EDT (10/22) 11:47 AM EDT (10/22)
Length of Visible Light 11h 35m
Length of Day
10h 34m
Waning Gibbous, 87% of the Moon is Illuminated
Oct 22
Waning Gibbous
Oct 26
Last Quarter
Nov 3
New
Nov 10
First Quarter
Nov 17
Full

Hourly Weather History & Observations

Time (EDT) Temp. Windchill Dew Point Humidity Pressure Visibility Wind Dir Wind Speed Gust Speed Precip Events Conditions
12:19 AM 32.0 °F 25.6 °F 23.2 °F 70% 29.69 in 10.0 mi WSW 6.9 mph - N/A   Scattered Clouds
12:39 AM 32.2 °F 24.4 °F 23.5 °F 70% 29.68 in 10.0 mi WSW 9.2 mph 16.1 mph N/A   Mostly Cloudy
12:59 AM 32.2 °F 25.0 °F 23.5 °F 70% 29.68 in 10.0 mi WSW 8.1 mph - N/A   Scattered Clouds
1:19 AM 32.2 °F 25.8 °F 24.3 °F 73% 29.67 in 10.0 mi SW 6.9 mph - N/A   Scattered Clouds
1:39 AM 32.4 °F 24.0 °F 25.0 °F 74% 29.66 in 10.0 mi WSW 10.4 mph 17.3 mph N/A   Scattered Clouds
1:59 AM 32.5 °F 25.5 °F 25.7 °F 76% 29.65 in 10.0 mi WSW 8.1 mph 17.3 mph N/A   Scattered Clouds
2:19 AM 32.9 °F 23.2 °F 26.6 °F 78% 29.65 in 10.0 mi WSW 13.8 mph 18.4 mph N/A   Scattered Clouds
2:39 AM 32.0 °F 24.2 °F 30.0 °F 92% 29.65 in 2.0 mi WSW 9.2 mph 16.1 mph N/A Snow Light Snow
2:59 AM 32.0 °F 24.2 °F 30.7 °F 95% 29.65 in 3.0 mi SW 9.2 mph - N/A Snow Light Snow
3:19 AM 32.0 °F 25.6 °F 29.8 °F 92% 29.64 in 10.0 mi WSW 6.9 mph - N/A   Overcast
3:39 AM 32.0 °F 26.4 °F 29.3 °F 90% 29.64 in 10.0 mi WSW 5.8 mph - N/A   Overcast
3:59 AM 32.0 °F 24.8 °F 29.3 °F 90% 29.63 in 10.0 mi SW 8.1 mph - N/A   Overcast
4:19 AM 32.0 °F 24.8 °F 28.9 °F 88% 29.63 in 10.0 mi West 8.1 mph - N/A   Overcast
4:39 AM 32.2 °F 25.0 °F 29.3 °F 89% 29.64 in 10.0 mi West 8.1 mph - N/A   Overcast
4:59 AM 32.5 °F 26.2 °F 30.0 °F 90% 29.63 in 10.0 mi West 6.9 mph - N/A   Overcast
5:19 AM 32.5 °F 24.2 °F 30.0 °F 90% 29.63 in 10.0 mi West 10.4 mph 16.1 mph N/A   Mostly Cloudy
5:39 AM 33.1 °F 23.9 °F 31.1 °F 92% 29.64 in 4.0 mi West 12.7 mph 23.0 mph N/A Snow Light Snow
5:59 AM 32.7 °F 23.9 °F 32.0 °F 97% 29.65 in 7.0 mi West 11.5 mph 18.4 mph N/A Snow Light Snow
6:19 AM 32.9 °F 23.7 °F 32.0 °F 96% 29.65 in 10.0 mi West 12.7 mph 17.3 mph N/A Snow Light Snow
6:39 AM 33.1 °F 23.0 °F 32.0 °F 96% 29.67 in 10.0 mi West 15.0 mph 19.6 mph N/A   Overcast
6:59 AM 33.1 °F 24.9 °F 32.0 °F 96% 29.68 in 10.0 mi WNW 10.4 mph - N/A   Mostly Cloudy
7:19 AM 33.1 °F 24.9 °F 32.2 °F 96% 29.68 in 10.0 mi West 10.4 mph - N/A Rain Light Rain
7:39 AM 33.4 °F 28.1 °F 32.4 °F 96% 29.70 in 10.0 mi WSW 5.8 mph - N/A   Scattered Clouds
7:59 AM 34.0 °F 27.2 °F 32.9 °F 96% 29.70 in 10.0 mi West 8.1 mph - N/A   Light Drizzle
8:19 AM 34.0 °F 25.5 °F 32.9 °F 96% 29.71 in 10.0 mi West 11.5 mph 17.3 mph N/A   Overcast
8:39 AM 34.2 °F 26.2 °F 33.1 °F 96% 29.72 in 10.0 mi West 10.4 mph - N/A Rain Light Rain
8:59 AM 34.0 °F 26.6 °F 32.9 °F 96% 29.73 in 5.0 mi West 9.2 mph - N/A Rain Light Rain
9:19 AM 34.7 °F 26.4 °F 33.8 °F 97% 29.73 in 10.0 mi West 11.5 mph - N/A Rain Light Rain
9:39 AM 34.5 °F 25.7 °F 33.3 °F 95% 29.74 in 7.0 mi WNW 12.7 mph 17.3 mph N/A Snow Light Snow
9:59 AM 34.7 °F 28.8 °F 33.8 °F 97% 29.75 in 4.0 mi West 6.9 mph - 0.01 in Rain Light Rain
10:19 AM 35.2 °F 27.1 °F 34.0 °F 95% 29.76 in 7.0 mi WNW 11.5 mph 16.1 mph N/A Rain Light Rain
10:39 AM 37.2 °F 30.0 °F 35.8 °F 95% 29.77 in 10.0 mi WNW 10.4 mph - N/A Rain Light Rain
11:00 AM 35.4 °F 27.8 °F 34.2 °F 95% 29.78 in 4.0 mi WNW 10.4 mph - N/A Snow Light Snow
11:19 AM 38.5 °F 31.6 °F 36.9 °F 94% 29.78 in 10.0 mi WNW 10.4 mph - N/A   Overcast
11:39 AM 38.7 °F 31.4 °F 36.7 °F 93% 29.79 in 10.0 mi WNW 11.5 mph 16.1 mph N/A   Overcast
11:59 AM 37.6 °F 29.6 °F 35.1 °F 91% 29.79 in 7.0 mi NW 12.7 mph 24.2 mph 0.01 in Rain Light Rain
12:19 PM 39.9 °F 32.9 °F 37.6 °F 91% 29.79 in 10.0 mi WNW 11.5 mph 20.7 mph N/A   Mostly Cloudy
12:39 PM 43.0 °F 37.2 °F 38.1 °F 83% 29.80 in 10.0 mi NW 10.4 mph 17.3 mph N/A   Mostly Cloudy
12:59 PM 38.8 °F 31.6 °F 36.1 °F 90% 29.80 in 7.0 mi NNW 11.5 mph 21.9 mph N/A Rain Light Rain
1:19 PM 39.9 °F 32.9 °F 37.8 °F 92% 29.80 in 10.0 mi NW 11.5 mph - N/A Rain Light Rain
1:39 PM 41.4 °F 32.7 °F 38.5 °F 89% 29.81 in 10.0 mi NNW 18.4 mph 23.0 mph N/A Rain Light Rain
1:59 PM 41.9 °F 35.0 °F 37.6 °F 85% 29.80 in 10.0 mi NW 12.7 mph 19.6 mph N/A   Mostly Cloudy
2:19 PM 41.7 °F 34.1 °F 36.3 °F 81% 29.80 in 10.0 mi NW 15.0 mph 23.0 mph N/A   Scattered Clouds
2:39 PM 39.7 °F 31.9 °F 34.9 °F 83% 29.80 in 10.0 mi NW 13.8 mph 25.3 mph N/A   Mostly Cloudy
2:59 PM 42.1 °F 34.9 °F 35.8 °F 78% 29.80 in 10.0 mi NNW 13.8 mph 19.6 mph N/A   Scattered Clouds
3:19 PM 41.9 °F 34.0 °F 35.4 °F 78% 29.81 in 10.0 mi North 16.1 mph 20.7 mph N/A Rain Rain
3:39 PM 39.0 °F 33.4 °F 35.6 °F 88% 29.81 in 10.0 mi NNW 8.1 mph - N/A   Mostly Cloudy
3:59 PM 42.8 °F 34.3 °F 37.2 °F 81% 29.82 in 10.0 mi NW 19.6 mph 26.5 mph N/A   Mostly Cloudy
4:19 PM 39.4 °F 33.2 °F 36.7 °F 90% 29.82 in 10.0 mi NNW 9.2 mph - 0.01 in   Mostly Cloudy
4:39 PM 37.9 °F 31.5 °F 34.7 °F 88% 29.83 in 7.0 mi NNW 9.2 mph - 0.01 in Rain Light Rain
4:59 PM 39.4 °F 32.3 °F 34.9 °F 84% 29.83 in 10.0 mi NNW 11.5 mph 18.4 mph 0.01 in   Scattered Clouds
5:19 PM 38.7 °F 33.6 °F 33.8 °F 83% 29.84 in 10.0 mi NNW 6.9 mph 19.6 mph N/A   Clear
5:39 PM 37.9 °F 30.9 °F 33.1 °F 83% 29.84 in 10.0 mi NNW 10.4 mph - N/A   Mostly Cloudy
5:59 PM 38.3 °F 31.4 °F 33.1 °F 81% 29.85 in 10.0 mi NNW 10.4 mph 16.1 mph N/A   Mostly Cloudy
6:19 PM 37.4 °F 30.8 °F 32.2 °F 81% 29.85 in 10.0 mi NW 9.2 mph - N/A   Scattered Clouds
6:39 PM 36.1 °F 29.3 °F 32.0 °F 85% 29.86 in 10.0 mi NW 9.2 mph - N/A   Scattered Clouds
6:59 PM 35.8 °F 27.3 °F 31.6 °F 85% 29.87 in 10.0 mi NW 12.7 mph 18.4 mph N/A   Scattered Clouds
7:19 PM 34.7 °F 26.4 °F 32.0 °F 90% 29.88 in 7.0 mi NNW 11.5 mph 19.6 mph N/A Rain Light Rain
7:40 PM 33.3 °F 26.4 °F 31.8 °F 94% 29.88 in 10.0 mi NNW 8.1 mph - N/A   Mostly Cloudy
7:59 PM 32.4 °F 26.9 °F 31.3 °F 96% 29.88 in 10.0 mi NW 5.8 mph - N/A   Scattered Clouds
8:19 PM 32.0 °F 27.5 °F 30.9 °F 96% 29.88 in 10.0 mi NW 4.6 mph - N/A   Scattered Clouds
8:39 PM 30.2 °F 24.3 °F 29.3 °F 96% 29.88 in 10.0 mi WNW 5.8 mph - N/A   Scattered Clouds
8:59 PM 31.1 °F 24.5 °F 30.2 °F 96% 29.88 in 10.0 mi WNW 6.9 mph - N/A   Scattered Clouds
9:19 PM 31.6 °F 25.1 °F 30.0 °F 94% 29.88 in 10.0 mi WNW 6.9 mph - N/A   Scattered Clouds
9:39 PM 31.5 °F 24.2 °F 29.7 °F 93% 29.88 in 10.0 mi NW 8.1 mph - N/A   Scattered Clouds
9:59 PM 32.0 °F 24.8 °F 29.7 °F 91% 29.88 in 10.0 mi NNW 8.1 mph - N/A   Scattered Clouds
10:19 PM 31.3 °F 24.7 °F 29.1 °F 92% 29.88 in 10.0 mi NW 6.9 mph - N/A   Scattered Clouds
10:39 PM 30.6 °F 22.4 °F 28.8 °F 93% 29.88 in 10.0 mi WNW 9.2 mph - N/A   Clear
10:59 PM 30.6 °F 23.1 °F 28.4 °F 92% 29.88 in 10.0 mi NW 8.1 mph - N/A   Clear
11:19 PM 30.2 °F 23.4 °F 28.6 °F 94% 29.87 in 10.0 mi NW 6.9 mph - N/A   Scattered Clouds
11:39 PM 30.0 °F 21.7 °F 28.4 °F 94% 29.87 in 10.0 mi West 9.2 mph - N/A   Scattered Clouds